User: anonymous   Login
Location: Rayville (historical)
(39.9992°N, 99.6815°W)
Time: 17:27:58
(UTC+00:00)
Language:

Cosmos 1862 Rocket - Orbit

View from above orbital plane
View from above orbital plane
View from above satellite
View from above satellite

Ground track
Ground track

The orbit data is extracted from the following two-line orbital elements,

1 18153U 87055B   20151.51504348 +.00000067 +00000-0 +51844-5 0  9992
2 18153 082.4993 172.0249 0022815 128.5501 231.7764 14.83287361757125
Epoch (UTC): 30 May 2020 12:21:39
Eccentricity: 0.0022815
inclination: 82.4993°
perigee height: 603 km
apogee height: 635 km
right ascension of ascending node: 172.0249°
argument of perigee: 128.5501°
revolutions per day: 14.83287361
mean anomaly at epoch: 231.7764°
orbit number at epoch: 75712

The dashed part of the orbit path shows where the satellite is in the earth's shadow,  

DLR